Weather History for Chiang Mai, Thailand

Change the Weather History Date:

Monday, December 10, 2012

  Actual Average Record
Temperature  
Mean Temperature 74 °F -  
Max Temperature 88 °F 81 °F 89 °F (2001)
Min Temperature 59 °F 59 °F 51 °F (1996)
Cooling Degree Days 8    
Growing Degree Days 24 (Base 50)    
Moisture  
Dew Point 57 °F    
Average Humidity 63    
Maximum Humidity 91    
Minimum Humidity 30    
Precipitation  
Precipitation 0.00 in 0.02 in - ()
Sea Level Pressure  
Sea Level Pressure 29.93 in    
Wind  
Wind Speed 1 mph ()    
Max Wind Speed 6 mph    
Max Gust Speed -    
Visibility 6.1 miles    
Events      
Averages and records for this station are not official NWS values.
T = Trace of Precipitation, MM = Missing Value Source: Averaged Metar Reports

Daily Weather History Graph

Daily Weather History Graph

Search for Another Location

Airport:

Trip Planner

Search our weather history database for the weather conditions in past years. The results will help you decide how hot, cold, wet, or windy it might be!

Date:

Astronomy

Dec. 10, 2012 Rise Set
Actual Time 6:46 AM ICT 5:47 PM ICT
Civil Twilight 6:22 AM ICT 6:11 PM ICT
Nautical Twilight 5:55 AM ICT 6:38 PM ICT
Astronomical Twilight 5:28 AM ICT 7:05 PM ICT
Moon 3:12 AM ICT (12/10) 2:57 PM ICT (12/10)
Length of Visible Light 11h 49m
Length of Day
11h 01m
Waning Crescent, 14% of the Moon is Illuminated
Dec 10
Waning Crescent
Dec 13
New
Dec 20
First Quarter
Dec 28
Full
Jan 5
Last Quarter

Hourly Weather History & Observations

Time (ICT) Temp. Heat Index Dew Point Humidity Pressure Visibility Wind Dir Wind Speed Gust Speed Precip Events Conditions
12:00 AM 64.4 °F - 57.2 °F 77% 29.95 in - Calm Calm - N/A   Clear
12:30 AM 64.4 °F - 57.2 °F 77% 29.95 in - Calm Calm - N/A   Clear
1:00 AM 64 °F - 59 °F 79% 29.92 in 6 mi Calm Calm - -  
1:00 AM 62.6 °F - 57.2 °F 82% 29.92 in - Calm Calm - N/A   Clear
1:30 AM 62.6 °F - 57.2 °F 82% 29.92 in - Calm Calm - N/A   Clear
2:00 AM 62.6 °F - 57.2 °F 82% 29.92 in - Calm Calm - N/A   Clear
2:30 AM 62.6 °F - 57.2 °F 82% 29.92 in - Calm Calm - N/A   Clear
3:30 AM 60.8 °F - 55.4 °F 82% 29.92 in - Calm Calm - N/A   Clear
4:00 AM 60.8 °F - 57.2 °F 88% 29.92 in - Calm Calm - N/A   Clear
4:30 AM 60.8 °F - 57.2 °F 88% 29.92 in - Calm Calm - N/A   Clear
5:00 AM 60.8 °F - 57.2 °F 88% 29.92 in - Calm Calm - N/A   Clear
5:30 AM 60.8 °F - 57.2 °F 88% 29.92 in - Calm Calm - N/A   Clear
6:00 AM 60.8 °F - 57.2 °F 88% 29.95 in - Calm Calm - N/A   Clear
6:30 AM 59.0 °F - 55.4 °F 88% 29.95 in 5.0 mi Calm Calm - N/A   Unknown
7:00 AM 59 °F - 57 °F 91% 29.95 in 6 mi Calm Calm - -   Clear
7:00 AM 60.8 °F - 55.4 °F 82% 29.98 in - North 4.6 mph - N/A   Clear
7:30 AM 62.6 °F - 55.4 °F 77% 29.98 in - Calm Calm - N/A   Clear
8:00 AM 64.4 °F - 55.4 °F 73% 30.01 in - Calm Calm - N/A   Clear
8:30 AM 66.2 °F - 55.4 °F 68% 30.01 in - North 2.3 mph - N/A   Clear
9:00 AM 68.0 °F - 53.6 °F 60% 30.04 in - Calm Calm - N/A   Clear
9:30 AM 69.8 °F - 55.4 °F 60% 30.04 in - Calm Calm - N/A   Clear
10:00 AM 71.6 °F - 55.4 °F 57% 30.04 in - Calm Calm - N/A   Clear
10:30 AM 73.4 °F - 53.6 °F 50% 30.01 in - Calm Calm - N/A   Clear
11:00 AM 73.4 °F - 55.4 °F 53% 30.01 in - NW 4.6 mph - N/A   Clear
11:30 AM 78.8 °F - 53.6 °F 42% 29.98 in - East 3.5 mph - N/A   Clear
12:00 PM 78.8 °F - 53.6 °F 42% 29.98 in - SW 2.3 mph - N/A   Clear
12:30 PM 80.6 °F - 51.8 °F 37% 29.95 in - WSW 3.5 mph - N/A   Clear
1:00 PM 83 °F - 57 °F 30% 29.87 in 6 mi Calm Calm - -  
1:00 PM 80.6 °F 80.3 °F 53.6 °F 39% 29.92 in - NW 3.5 mph - N/A   Clear
1:30 PM 84.2 °F 82.8 °F 53.6 °F 35% 29.92 in - NE 3.5 mph - N/A   Clear
2:00 PM 84.2 °F 82.8 °F 53.6 °F 35% 29.89 in 6.2 mi ESE 3.5 mph - N/A   Partly Cloudy
2:30 PM 84.2 °F 82.8 °F 53.6 °F 35% 29.89 in 6.2 mi WSW 2.3 mph - N/A   Partly Cloudy
3:00 PM 84.2 °F 83.0 °F 55.4 °F 37% 29.86 in 6.2 mi NW 3.5 mph - N/A   Partly Cloudy
3:30 PM 84.2 °F 83.0 °F 55.4 °F 37% 29.86 in 6.2 mi ENE 4.6 mph - N/A   Partly Cloudy
4:00 PM 84.2 °F 83.0 °F 55.4 °F 37% 29.86 in 6.2 mi East 3.5 mph - N/A   Partly Cloudy
4:30 PM 84.2 °F 83.0 °F 55.4 °F 37% 29.86 in 6.2 mi North 4.6 mph - N/A   Partly Cloudy
5:00 PM 82.4 °F 81.7 °F 55.4 °F 39% 29.86 in 6.2 mi North 5.8 mph - N/A   Partly Cloudy
5:30 PM 82.4 °F 81.7 °F 55.4 °F 39% 29.86 in 6.2 mi NNW 4.6 mph - N/A   Partly Cloudy
6:00 PM 78.8 °F - 57.2 °F 47% 29.89 in 6.2 mi NNW 3.5 mph - N/A   Partly Cloudy
6:30 PM 77.0 °F - 60.8 °F 57% 29.89 in 6.2 mi SW 3.5 mph - N/A   Partly Cloudy
7:00 PM 75 °F - 64 °F 59% 29.83 in 6 mi Calm Calm - -  
7:00 PM 75.2 °F - 60.8 °F 61% 29.89 in - West 2.3 mph - N/A   Clear
7:30 PM 73.4 °F - 60.8 °F 65% 29.92 in - West 2.3 mph - N/A   Clear
8:00 PM 73.4 °F - 59.0 °F 61% 29.92 in - West 3.5 mph - N/A   Clear
8:30 PM 73.4 °F - 59.0 °F 61% 29.92 in - SW 2.3 mph - N/A   Clear
9:00 PM 73.4 °F - 59.0 °F 61% 29.95 in - Calm Calm - N/A   Clear
9:30 PM 69.8 °F - 60.8 °F 73% 29.95 in - Calm Calm - N/A   Clear
10:00 PM 69.8 °F - 60.8 °F 73% 29.95 in - Calm Calm - N/A   Clear
10:30 PM 69.8 °F - 60.8 °F 73% 29.95 in - WNW 3.5 mph - N/A   Clear
11:00 PM 68.0 °F - 60.8 °F 78% 29.95 in - West 3.5 mph - N/A   Clear